| time (UTC) | temp C | wind direction | speed KPH | gust KPH | rain 1hr cm | rain 24hr cm | rain mn cm | humidity % | barometer mb |
| 20260507114526 | 8 | 292 | 8.0 | 0.0 | 0.00 | 0.00 | 0.00 | 100 | 1012.5 |
| 20260507113023 | 8 | 313 | 6.4 | 0.0 | 0.00 | 0.00 | 0.00 | 100 | 1012.5 |
| 20260507111528 | 8 | 295 | 6.4 | 0.0 | 0.00 | 0.00 | 0.00 | 100 | 1012.4 |
| 20260507110014 | 8 | 269 | 8.0 | 0.0 | 0.00 | 0.00 | 0.00 | 100 | 1012.2 |
| 20260507104510 | 8 | 290 | 8.0 | 0.0 | 0.00 | 0.00 | 0.00 | 100 | 1012.1 |
| 20260507103004 | 8 | 300 | 9.7 | 0.0 | 0.00 | 0.00 | 0.00 | 100 | 1011.9 |
| 20260507101601 | 8 | 271 | 9.7 | 0.0 | 0.00 | 0.00 | 0.00 | 100 | 1011.9 |
| 20260507100056 | 8 | 288 | 9.7 | 0.0 | 0.00 | 0.00 | 0.00 | 100 | 1011.6 |
| 20260507094552 | 8 | 286 | 11.3 | 0.0 | 0.00 | 0.00 | 0.00 | 100 | 1011.4 |
| 20260507093048 | 8 | 311 | 8.0 | 0.0 | 0.00 | 0.00 | 0.00 | 100 | 1011.4 |
| 20260507091543 | 9 | 302 | 8.0 | 0.0 | 0.00 | 0.00 | 0.00 | 100 | 1011.2 |
| 20260507090038 | 9 | 292 | 9.7 | 0.0 | 0.00 | 0.00 | 0.00 | 100 | 1011.2 |
| 20260507084537 | 9 | 171 | 1.6 | 0.0 | 0.00 | 0.00 | 0.00 | 100 | 1011.0 |
| 20260507083030 | 9 | 336 | 3.2 | 0.0 | 0.00 | 0.00 | 0.00 | 100 | 1011.3 |
| 20260507081526 | 9 | 344 | 6.4 | 0.0 | 0.00 | 0.00 | 0.00 | 100 | 1011.3 |
| 20260507080021 | 10 | 281 | 9.7 | 0.0 | 0.00 | 0.00 | 0.00 | 100 | 1011.1 |
| 20260507074517 | 10 | 284 | 9.7 | 0.0 | 0.00 | 0.00 | 0.00 | 100 | 1011.2 |
| 20260507073012 | 10 | 330 | 6.4 | 0.0 | 0.00 | 0.00 | 0.00 | 100 | 1011.2 |
| 20260507071509 | 10 | 291 | 9.7 | 0.0 | 0.00 | 0.00 | 0.00 | 100 | 1011.5 |
| 20260507070009 | 10 | 311 | 6.4 | 0.0 | 0.00 | 0.00 | 0.00 | 100 | 1011.4 |
| 20260507064559 | 10 | 294 | 11.3 | 0.0 | 0.00 | 0.00 | 0.00 | 100 | 1011.7 |
| 20260507063056 | 10 | 290 | 9.7 | 0.0 | 0.00 | 0.00 | 0.00 | 100 | 1011.4 |
| 20260507061551 | 10 | 275 | 8.0 | 0.0 | 0.00 | 0.00 | 0.00 | 100 | 1011.5 |
| 20260507060058 | 10 | 338 | 6.4 | 0.0 | 0.00 | 0.00 | 0.00 | 100 | 1011.4 |
| 20260507054548 | 10 | 300 | 4.8 | 0.0 | 0.00 | 0.00 | 0.00 | 100 | 1011.7 |
| 20260507053041 | 11 | 287 | 8.0 | 0.0 | 0.00 | 0.00 | 0.00 | 100 | 1011.3 |
| 20260507051534 | 11 | 346 | 8.0 | 0.0 | 0.00 | 0.00 | 0.00 | 100 | 1011.8 |
| 20260507050030 | 11 | 298 | 11.3 | 0.0 | 0.00 | 0.00 | 0.00 | 100 | 1011.6 |
| 20260507044544 | 11 | 294 | 9.7 | 0.0 | 0.00 | 0.00 | 0.00 | 100 | 1011.3 |
| 20260507043021 | 11 | 299 | 6.4 | 0.0 | 0.00 | 0.00 | 0.00 | 100 | 1011.4 |
| 20260507041516 | 11 | 313 | 9.7 | 0.0 | 0.00 | 0.00 | 0.00 | 100 | 1011.4 |
| 20260507040012 | 11 | 301 | 12.9 | 0.0 | 0.00 | 0.00 | 0.48 | 100 | 1011.2 |
| 20260507034507 | 12 | 322 | 9.7 | 0.0 | 0.00 | 0.00 | 0.48 | 100 | 1011.2 |
| 20260507033003 | 12 | 309 | 6.4 | 0.0 | 0.00 | 0.00 | 0.48 | 100 | 1011.2 |
| 20260507031559 | 12 | 302 | 8.0 | 0.0 | 0.00 | 0.00 | 0.48 | 100 | 1011.0 |
| 20260507030101 | 12 | 335 | 6.4 | 0.0 | 0.00 | 0.00 | 0.48 | 100 | 1010.4 |
| 20260507024555 | 12 | 334 | 4.8 | 0.0 | 0.00 | 0.00 | 0.48 | 100 | 1010.7 |
| 20260507023045 | 12 | 315 | 6.4 | 0.0 | 0.00 | 0.00 | 0.48 | 100 | 1010.6 |
| 20260507021541 | 12 | 294 | 3.2 | 0.0 | 0.00 | 0.00 | 0.48 | 100 | 1010.8 |
| 20260507020045 | 12 | 288 | 9.7 | 0.0 | 0.00 | 0.00 | 0.48 | 100 | 1010.7 |
| 20260507014535 | 12 | 315 | 12.9 | 0.0 | 0.00 | 0.00 | 0.48 | 100 | 1010.5 |
| 20260507013031 | 12 | 306 | 9.7 | 0.0 | 0.00 | 0.00 | 0.48 | 100 | 1010.9 |
| 20260507011524 | 12 | 290 | 12.9 | 0.0 | 0.00 | 0.00 | 0.48 | 100 | 1011.3 |
| 20260507010025 | 13 | 314 | 8.0 | 0.0 | 0.00 | 0.00 | 0.48 | 100 | 1011.0 |
| 20260507004515 | 13 | 308 | 9.7 | 0.0 | 0.00 | 0.00 | 0.48 | 100 | 1010.6 |
| 20260507003019 | 13 | 298 | 8.0 | 0.0 | 0.00 | 0.00 | 0.48 | 100 | 1010.4 |
| 20260507001514 | 13 | 262 | 12.9 | 0.0 | 0.00 | 0.00 | 0.48 | 100 | 1009.9 |
| 20260507000008 | 13 | 276 | 14.5 | 0.0 | 0.00 | 0.00 | 0.48 | 100 | 1009.5 |
| 20260506234600 | 14 | 299 | 14.5 | 0.0 | 0.00 | 0.00 | 0.48 | 100 | 1008.9 |
| 20260506233054 | 15 | 277 | 9.7 | 0.0 | 0.00 | 0.00 | 0.48 | 100 | 1008.7 |
| 20260506231549 | 15 | 223 | 11.3 | 0.0 | 0.00 | 0.00 | 0.48 | 100 | 1008.7 |
| 20260506230045 | 15 | 284 | 11.3 | 0.0 | 0.00 | 0.00 | 0.48 | 100 | 1008.4 |
| 20260506224554 | 16 | 266 | 11.3 | 0.0 | 0.00 | 0.00 | 0.48 | 100 | 1008.3 |
| 20260506223036 | 16 | 225 | 14.5 | 0.0 | 0.00 | 0.00 | 0.48 | 100 | 1008.1 |
| 20260506221532 | 16 | 245 | 14.5 | 0.0 | 0.00 | 0.00 | 0.48 | 100 | 1007.9 |
| 20260506220031 | 17 | 247 | 12.9 | 0.0 | 0.00 | 0.00 | 0.48 | 100 | 1007.7 |
| 20260506214523 | 17 | 253 | 14.5 | 0.0 | 0.00 | 0.00 | 0.48 | 100 | 1007.5 |
| 20260506213019 | 17 | 259 | 19.3 | 0.0 | 0.00 | 0.00 | 0.48 | 100 | 1007.2 |
| 20260506211515 | 16 | 284 | 19.3 | 0.0 | 0.00 | 0.00 | 0.48 | 100 | 1006.6 |
| 20260506210014 | 16 | 276 | 27.4 | 0.0 | 0.00 | 0.00 | 0.48 | 100 | 1006.6 |
| 20260506204506 | 17 | 289 | 17.7 | 0.0 | 0.00 | 0.00 | 0.48 | 100 | 1006.2 |
| 20260506203001 | 17 | 261 | 14.5 | 0.0 | 0.00 | 0.00 | 0.48 | 100 | 1006.1 |
| 20260506201557 | 17 | 232 | 19.3 | 0.0 | 0.00 | 0.00 | 0.48 | 100 | 1005.9 |
| 20260506200055 | 17 | 265 | 12.9 | 0.0 | 0.00 | 0.00 | 0.48 | 100 | 1005.8 |
| 20260506194600 | 17 | 265 | 16.1 | 0.0 | 0.00 | 0.00 | 0.48 | 100 | 1006.0 |
| 20260506193044 | 17 | 250 | 9.7 | 0.0 | 0.00 | 0.00 | 0.48 | 100 | 1006.0 |
| 20260506191539 | 17 | 269 | 0.0 | 0.0 | 0.00 | 0.00 | 0.48 | 100 | 1006.0 |
| 20260506190035 | 17 | 109 | 1.6 | 0.0 | 0.00 | 0.00 | 0.48 | 100 | 1005.9 |
| 20260506184532 | 16 | 340 | 6.4 | 0.0 | 0.00 | 0.00 | 0.48 | 100 | 1006.1 |
| 20260506183028 | 17 | 271 | 3.2 | 0.0 | 0.00 | 0.00 | 0.48 | 100 | 1006.0 |
| 20260506181522 | 16 | 308 | 6.4 | 0.0 | 0.00 | 0.00 | 0.48 | 100 | 1005.9 |
| 20260506180024 | 16 | 208 | 4.8 | 0.0 | 0.00 | 0.00 | 0.48 | 100 | 1006.0 |
| 20260506174513 | 16 | 217 | 4.8 | 0.0 | 0.00 | 0.00 | 0.48 | 100 | 1006.1 |
| 20260506173008 | 16 | 211 | 1.6 | 0.0 | 0.00 | 0.00 | 0.48 | 100 | 1006.1 |
| 20260506171511 | 15 | 224 | 4.8 | 0.0 | 0.00 | 0.00 | 0.48 | 100 | 1006.2 |
| 20260506170107 | 15 | 244 | 4.8 | 0.0 | 0.00 | 0.00 | 0.48 | 100 | 1006.2 |
| 20260506164601 | 15 | 196 | 4.8 | 0.0 | 0.00 | 0.00 | 0.46 | 100 | 1006.3 |
| 20260506163100 | 15 | 166 | 3.2 | 0.0 | 0.00 | 0.00 | 0.46 | 100 | 1006.3 |
| 20260506161549 | 15 | 140 | 4.8 | 0.0 | 0.00 | 0.00 | 0.46 | 100 | 1006.3 |
| 20260506160043 | 15 | 57 | 3.2 | 0.0 | 0.00 | 0.00 | 0.46 | 100 | 1006.3 |
| 20260506154537 | 15 | 38 | 3.2 | 0.0 | 0.00 | 0.00 | 0.46 | 100 | 1006.2 |
| 20260506153034 | 15 | 61 | 0.0 | 0.0 | 0.00 | 0.00 | 0.46 | 100 | 1006.1 |
| 20260506151534 | 14 | 120 | 1.6 | 0.0 | 0.00 | 0.00 | 0.46 | 100 | 1006.1 |
| 20260506150025 | 14 | 91 | 3.2 | 0.0 | 0.00 | 0.00 | 0.46 | 100 | 1005.9 |
| 20260506144520 | 13 | 71 | 4.8 | 0.0 | 0.00 | 0.00 | 0.46 | 100 | 1005.9 |
| 20260506143019 | 13 | 65 | 3.2 | 0.0 | 0.00 | 0.00 | 0.43 | 100 | 1006.1 |
| 20260506141511 | 13 | 40 | 4.8 | 0.0 | 0.00 | 0.00 | 0.43 | 100 | 1006.3 |
| 20260506140008 | 13 | 61 | 1.6 | 0.0 | 0.00 | 0.00 | 0.38 | 100 | 1006.2 |
| 20260506134502 | 13 | 84 | 1.6 | 0.0 | 0.00 | 0.00 | 0.38 | 100 | 1006.2 |
| 20260506133107 | 13 | 39 | 3.2 | 0.0 | 0.00 | 0.00 | 0.36 | 100 | 1006.2 |
| 20260506131554 | 13 | 100 | 3.2 | 0.0 | 0.00 | 0.00 | 0.33 | 100 | 1006.2 |
| 20260506130051 | 13 | 94 | 1.6 | 0.0 | 0.00 | 0.00 | 0.30 | 100 | 1006.2 |
| 20260506124545 | 13 | 34 | 4.8 | 0.0 | 0.00 | 0.00 | 0.28 | 100 | 1006.1 |
| 20260506123041 | 13 | 32 | 3.2 | 0.0 | 0.00 | 0.00 | 0.28 | 100 | 1006.4 |
| 20260506121536 | 13 | 108 | 0.0 | 0.0 | 0.00 | 0.00 | 0.23 | 100 | 1006.6 |
| 20260506120038 | 13 | 257 | 0.0 | 0.0 | 0.00 | 0.00 | 0.18 | 100 | 1006.8 |